Content
SEND FEEDBACK

Canada Flag

LOCKSTON, NEWFOUNDLAND AND LABRADOR


Home > North America > Canada > Newfoundland and Labrador
Elevation: 59 feet     Latitude: 48 24N     Longitude: 53 23W

WEATHER
 
SELECT A DAY
Number of Records: 147,087;   Date Range: 12/29/99 - 3/22/16
 
SHARE

PRINT THIS DATA

[ ← Previous Day ]
WEATHER ALMANAC - FEBRUARY 14, 2013
[ Next Day → ]
[ °C ]   °F
Weather ElementAverageHighLow
Temperature28.5 °F31 °F (2:30 pm)26.2 °F (10:30 pm)
Dewpoint26.5 °F28 °F (2:30 pm)23.7 °F (11:30 pm)
Humidity91.9 %97 % (5:30 am)82 % (2:30 pm)
Barometer29.53 in29.65 in (9:30 pm)29.31 in (1:30 am)
Wind Speed9.7 mph15 mph (1:30 am)
Wind Gust27.6 mph (3:30 am)
Weather ElementAverage
Wind DirectionNW (315.6 °)

Weather ElementTotal
Precipitation0.04 in
Heating Degree Days36.4 (Base 65)
Averaged from 27 records on February 14, 2013
WEATHER CONDITIONS BREAKOUT
WIND DIRECTION BREAKOUT
WEATHER BY HOUR - FEBRUARY 14, 2013
[ °C ]   °F
Local TimeTemperatureDewpointHumidityBarometerVisibilityWind DirectionWind SpeedGust SpeedPrecipitationEventsConditions
1:30 AM28.4 °F26.6 °F93 %29.31 inWNW (290°)15.0 mph25.3 mph
2:30 AM28.0 °F26.0 °F91 %29.33 inWest (280°)13.8 mph
2:30 AM28.2 °F26.4 °F93 %29.33 inWest (280°)13.8 mph23.0 mph
3:30 AM28.4 °F26.4 °F92 %29.37 inWNW (300°)15.0 mph27.6 mph
4:30 AM28.4 °F27.0 °F94 %29.40 inWNW (300°)11.5 mph23.0 mph
5:30 AM28.4 °F27.7 °F97 %29.44 inNW (310°)11.5 mph19.6 mph
6:30 AM28.0 °F27.1 °F96 %29.46 inWNW (300°)10.4 mph17.3 mph
7:30 AM27.9 °F26.8 °F96 %29.49 inNW (310°)8.1 mph18.4 mph0.02 in
8:30 AM28.0 °F27.0 °F95 %29.52 inNW (310°)8.1 mph
8:30 AM28.2 °F27.1 °F96 %29.52 inNW (310°)8.1 mph
9:30 AM29.5 °F27.5 °F92 %29.53 inNW (320°)10.4 mph19.6 mph
10:30 AM29.8 °F27.0 °F89 %29.56 inNW (320°)11.5 mph25.3 mph
11:30 AM30.2 °F27.1 °F88 %29.58 inNW (310°)11.5 mph20.7 mph
12:30 PM30.7 °F27.1 °F86 %29.57 inNW (310°)11.5 mph19.6 mph
1:30 PM30.7 °F27.9 °F89 %29.57 inNW (320°)9.2 mph
2:30 PM31.0 °F28.0 °F82 %29.57 inNW (320°)8.1 mph
2:30 PM30.7 °F27.7 °F88 %29.57 inNW (320°)8.1 mph
3:30 PM30.2 °F27.3 °F89 %29.60 inNW (320°)9.2 mph19.6 mph0.02 in
4:30 PM28.4 °F26.4 °F92 %29.60 inNNW (330°)8.1 mph17.3 mph
5:30 PM27.3 °F26.2 °F96 %29.61 inNNW (340°)6.9 mph
6:30 PM27.3 °F26.2 °F96 %29.60 inNorth (350°)8.1 mph
7:30 PM27.5 °F25.9 °F94 %29.62 inNNW (330°)6.9 mph
8:30 PM27.0 °F26.0 °F92 %29.62 inNNW (330°)4.6 mph
8:30 PM27.3 °F25.5 °F93 %29.62 inNNW (330°)4.6 mph
9:30 PM27.1 °F24.8 °F91 %29.65 inNNW (330°)8.1 mph
10:30 PM26.2 °F23.9 °F91 %29.65 inNNW (330°)9.2 mph19.6 mph
11:30 PM26.4 °F23.7 °F90 %29.65 inNW (320°)11.5 mph21.9 mph
Hourly data recorded from CXTP, located miles away from Lockston, Newfoundland and Labrador




STORIES FROM OUR PARTNERS